Time,TemperatureF,DewpointF,PressureIn,WindDirection,WindDirectionDegrees,WindSpeedMPH,WindSpeedGustMPH,Humidity,HourlyPrecipIn,Conditions,Clouds,dailyrainin,SolarRadiationWatts/m^2,SoftwareType,DateUTC
2013-01-11 00:05:00,38.7,37.0,30.04,ESE,122,1.0,-999.0,95,-99.99,,,0.00,0,weatherlink.com 1.10,2013-01-11 05:05:00,
2013-01-11 00:20:00,38.6,37.0,30.03,ESE,111,2.0,-999.0,94,-99.99,,,0.00,0,weatherlink.com 1.10,2013-01-11 05:20:00,
2013-01-11 00:36:00,38.7,37.0,30.02,ENE,57,1.0,-999.0,94,-99.99,,,0.00,0,weatherlink.com 1.10,2013-01-11 05:36:00,
2013-01-11 00:50:00,38.8,37.0,30.03,East,97,1.0,-999.0,94,-99.99,,,0.00,0,weatherlink.com 1.10,2013-01-11 05:50:00,
2013-01-11 01:05:00,38.9,37.0,30.03,ENE,68,0.0,-999.0,94,-99.99,,,0.00,0,weatherlink.com 1.10,2013-01-11 06:05:00,
2013-01-11 01:20:00,39.0,37.0,30.02,ENE,65,1.0,-999.0,93,-99.99,,,0.00,0,weatherlink.com 1.10,2013-01-11 06:20:00,
2013-01-11 01:35:00,38.9,37.0,30.00,ENE,58,3.0,-999.0,94,-99.99,,,0.00,0,weatherlink.com 1.10,2013-01-11 06:35:00,
2013-01-11 01:50:00,38.8,37.0,29.98,ENE,64,3.0,-999.0,94,-99.99,,,0.00,0,weatherlink.com 1.10,2013-01-11 06:50:00,
2013-01-11 02:05:00,38.8,37.0,29.96,ENE,76,3.0,-999.0,93,-99.99,,,0.00,0,weatherlink.com 1.10,2013-01-11 07:05:00,
2013-01-11 02:20:00,38.8,37.0,29.95,East,99,1.0,-999.0,94,-99.99,,,0.00,0,weatherlink.com 1.10,2013-01-11 07:20:00,
2013-01-11 02:35:00,39.0,38.0,29.95,ENE,71,2.0,-999.0,94,-99.99,,,0.00,0,weatherlink.com 1.10,2013-01-11 07:35:00,
2013-01-11 02:50:00,39.0,38.0,29.94,East,83,1.0,-999.0,94,-99.99,,,0.00,0,weatherlink.com 1.10,2013-01-11 07:50:00,
2013-01-11 03:05:00,39.0,38.0,29.93,ENE,64,1.0,-999.0,94,-99.99,,,0.01,0,weatherlink.com 1.10,2013-01-11 08:05:00,
2013-01-11 03:20:00,39.5,38.0,29.92,ENE,75,1.0,-999.0,95,-99.99,,,0.03,0,weatherlink.com 1.10,2013-01-11 08:20:00,
2013-01-11 03:35:00,40.5,40.0,29.91,ESE,120,3.0,-999.0,96,-99.99,,,0.06,0,weatherlink.com 1.10,2013-01-11 08:35:00,
2013-01-11 03:50:00,42.0,41.0,29.91,SE,136,4.0,-999.0,96,-99.99,,,0.08,0,weatherlink.com 1.10,2013-01-11 08:50:00,
2013-01-11 04:05:00,45.5,45.0,29.89,SSE,152,7.0,-999.0,97,-99.99,,,0.10,0,weatherlink.com 1.10,2013-01-11 09:05:00,
2013-01-11 04:20:00,47.0,45.0,29.88,SSE,159,14.0,-999.0,94,-99.99,,,0.15,0,weatherlink.com 1.10,2013-01-11 09:20:00,
2013-01-11 04:35:00,47.0,45.0,29.87,SSE,150,16.0,-999.0,94,-99.99,,,0.27,0,weatherlink.com 1.10,2013-01-11 09:35:00,
2013-01-11 04:50:00,47.6,46.0,29.87,SSE,158,11.0,-999.0,95,-99.99,,,0.33,0,weatherlink.com 1.10,2013-01-11 09:50:00,
2013-01-11 05:08:00,47.9,47.0,29.87,SSE,163,14.0,-999.0,95,-99.99,,,0.34,0,weatherlink.com 1.10,2013-01-11 10:08:00,
2013-01-11 05:20:00,48.7,48.0,29.86,South,170,13.0,-999.0,96,-99.99,,,0.36,0,weatherlink.com 1.10,2013-01-11 10:20:00,
2013-01-11 05:35:00,49.4,48.0,29.84,SSE,165,13.0,-999.0,96,-99.99,,,0.38,0,weatherlink.com 1.10,2013-01-11 10:35:00,
2013-01-11 05:50:00,50.1,49.0,29.83,SSE,160,9.0,-999.0,96,-99.99,,,0.39,0,weatherlink.com 1.10,2013-01-11 10:50:00,
2013-01-11 06:05:00,50.9,50.0,29.82,SE,141,16.0,-999.0,96,-99.99,,,0.39,0,weatherlink.com 1.10,2013-01-11 11:05:00,
2013-01-11 06:20:00,51.6,51.0,29.79,SSE,162,14.0,-999.0,96,-99.99,,,0.41,0,weatherlink.com 1.10,2013-01-11 11:20:00,
2013-01-11 06:38:00,51.4,50.0,29.77,SSE,155,13.0,-999.0,95,-99.99,,,0.41,0,weatherlink.com 1.10,2013-01-11 11:38:00,
2013-01-11 06:50:00,51.7,50.0,29.78,SSE,153,18.0,-999.0,94,-99.99,,,0.41,0,weatherlink.com 1.10,2013-01-11 11:50:00,
2013-01-11 07:05:00,52.0,50.0,29.74,SSE,150,13.0,-999.0,94,-99.99,,,0.41,0,weatherlink.com 1.10,2013-01-11 12:05:00,
2013-01-11 07:20:00,52.4,51.0,29.76,SSE,168,15.0,-999.0,93,-99.99,,,0.41,0,weatherlink.com 1.10,2013-01-11 12:20:00,
2013-01-11 07:35:00,52.1,51.0,29.78,South,176,16.0,-999.0,94,-99.99,,,0.41,0,weatherlink.com 1.10,2013-01-11 12:35:00,
2013-01-11 07:50:00,52.1,51.0,29.79,SSW,197,16.0,-999.0,94,-99.99,,,0.41,0,weatherlink.com 1.10,2013-01-11 12:50:00,
2013-01-11 08:05:00,52.1,51.0,29.80,South,180,16.0,-999.0,94,-99.99,,,0.41,0,weatherlink.com 1.10,2013-01-11 13:05:00,
2013-01-11 08:20:00,52.3,51.0,29.80,South,169,14.0,-999.0,94,-99.99,,,0.41,0,weatherlink.com 1.10,2013-01-11 13:20:00,
2013-01-11 08:35:00,52.2,51.0,29.81,South,191,16.0,-999.0,94,-99.99,,,0.41,14,weatherlink.com 1.10,2013-01-11 13:35:00,
2013-01-11 08:50:00,52.2,51.0,29.82,SSW,199,13.0,-999.0,95,-99.99,,,0.41,7,weatherlink.com 1.10,2013-01-11 13:50:00,
2013-01-11 09:05:00,52.4,51.0,29.81,South,189,16.0,-999.0,95,-99.99,,,0.41,33,weatherlink.com 1.10,2013-01-11 14:05:00,
2013-01-11 09:20:00,52.5,51.0,29.82,SSW,195,11.0,-999.0,95,-99.99,,,0.41,16,weatherlink.com 1.10,2013-01-11 14:20:00,
2013-01-11 09:35:00,53.0,52.0,29.82,SSW,210,15.0,-999.0,95,-99.99,,,0.42,37,weatherlink.com 1.10,2013-01-11 14:35:00,
2013-01-11 09:50:00,53.3,52.0,29.82,SSW,200,10.0,-999.0,95,-99.99,,,0.42,77,weatherlink.com 1.10,2013-01-11 14:50:00,
2013-01-11 10:05:00,53.8,52.0,29.82,SSW,199,11.0,-999.0,94,-99.99,,,0.42,83,weatherlink.com 1.10,2013-01-11 15:05:00,
2013-01-11 10:20:00,54.3,52.0,29.82,SSW,207,10.0,-999.0,93,-99.99,,,0.42,88,weatherlink.com 1.10,2013-01-11 15:20:00,
2013-01-11 10:35:00,55.0,53.0,29.83,SSW,200,14.0,-999.0,93,-99.99,,,0.42,204,weatherlink.com 1.10,2013-01-11 15:35:00,
2013-01-11 10:50:00,55.6,53.0,29.83,SW,226,17.0,-999.0,91,-99.99,,,0.42,130,weatherlink.com 1.10,2013-01-11 15:50:00,
2013-01-11 11:05:00,55.6,53.0,29.83,SSW,212,15.0,-999.0,91,-99.99,,,0.42,139,weatherlink.com 1.10,2013-01-11 16:05:00,
2013-01-11 11:20:00,55.6,53.0,29.83,SW,214,13.0,-999.0,89,-99.99,,,0.42,98,weatherlink.com 1.10,2013-01-11 16:20:00,
2013-01-11 11:35:00,55.6,52.0,29.83,SSW,210,12.0,-999.0,88,-99.99,,,0.42,220,weatherlink.com 1.10,2013-01-11 16:35:00,
2013-01-11 11:50:00,56.0,52.0,29.82,SSW,206,13.0,-999.0,87,-99.99,,,0.42,466,weatherlink.com 1.10,2013-01-11 16:50:00,
2013-01-11 12:05:00,56.0,52.0,29.82,SW,215,14.0,-999.0,85,-99.99,,,0.42,265,weatherlink.com 1.10,2013-01-11 17:05:00,
2013-01-11 12:20:00,56.6,52.0,29.82,WSW,258,5.0,-999.0,85,-99.99,,,0.42,582,weatherlink.com 1.10,2013-01-11 17:20:00,
2013-01-11 12:35:00,55.9,51.0,29.82,SSW,210,13.0,-999.0,83,-99.99,,,0.42,165,weatherlink.com 1.10,2013-01-11 17:35:00,
2013-01-11 12:50:00,55.8,51.0,29.82,SSW,211,10.0,-999.0,84,-99.99,,,0.42,279,weatherlink.com 1.10,2013-01-11 17:50:00,
2013-01-11 13:05:00,56.0,50.0,29.81,SW,228,18.0,-999.0,81,-99.99,,,0.42,146,weatherlink.com 1.10,2013-01-11 18:05:00,
2013-01-11 13:20:00,55.4,50.0,29.81,SW,225,17.0,-999.0,82,-99.99,,,0.42,60,weatherlink.com 1.10,2013-01-11 18:20:00,
2013-01-11 13:35:00,55.2,51.0,29.81,SW,214,7.0,-999.0,84,-99.99,,,0.42,67,weatherlink.com 1.10,2013-01-11 18:35:00,
2013-01-11 13:50:00,55.8,50.0,29.81,SW,215,7.0,-999.0,82,-99.99,,,0.42,469,weatherlink.com 1.10,2013-01-11 18:50:00,
2013-01-11 14:06:00,56.2,50.0,29.82,SSW,210,18.0,-999.0,80,-99.99,,,0.42,376,weatherlink.com 1.10,2013-01-11 19:06:00,
2013-01-11 14:20:00,55.7,50.0,29.82,SW,221,18.0,-999.0,80,-99.99,,,0.42,144,weatherlink.com 1.10,2013-01-11 19:20:00,
2013-01-11 14:35:00,55.5,49.0,29.83,SW,218,15.0,-999.0,79,-99.99,,,0.42,218,weatherlink.com 1.10,2013-01-11 19:35:00,
2013-01-11 14:50:00,55.1,49.0,29.84,SW,226,15.0,-999.0,80,-99.99,,,0.42,114,weatherlink.com 1.10,2013-01-11 19:50:00,
2013-01-11 15:05:00,54.6,49.0,29.84,SW,216,10.0,-999.0,80,-99.99,,,0.42,42,weatherlink.com 1.10,2013-01-11 20:05:00,
2013-01-11 15:20:00,54.7,49.0,29.83,SW,214,10.0,-999.0,81,-99.99,,,0.42,98,weatherlink.com 1.10,2013-01-11 20:20:00,
2013-01-11 15:35:00,55.7,50.0,29.83,SSW,197,10.0,-999.0,81,-99.99,,,0.42,279,weatherlink.com 1.10,2013-01-11 20:35:00,
2013-01-11 15:50:00,55.3,49.0,29.84,SW,214,7.0,-999.0,80,-99.99,,,0.42,74,weatherlink.com 1.10,2013-01-11 20:50:00,
2013-01-11 16:05:00,54.6,49.0,29.84,SSW,205,14.0,-999.0,81,-99.99,,,0.42,72,weatherlink.com 1.10,2013-01-11 21:05:00,
2013-01-11 16:20:00,54.5,48.0,29.85,SW,214,9.0,-999.0,80,-99.99,,,0.42,40,weatherlink.com 1.10,2013-01-11 21:20:00,
2013-01-11 16:35:00,54.4,49.0,29.84,SW,220,11.0,-999.0,81,-99.99,,,0.42,74,weatherlink.com 1.10,2013-01-11 21:35:00,
2013-01-11 16:50:00,54.1,49.0,29.85,SSW,205,7.0,-999.0,82,-99.99,,,0.42,53,weatherlink.com 1.10,2013-01-11 21:50:00,
2013-01-11 17:05:00,53.8,48.0,29.85,South,185,6.0,-999.0,82,-99.99,,,0.42,37,weatherlink.com 1.10,2013-01-11 22:05:00,
2013-01-11 17:20:00,52.7,48.0,29.84,South,189,6.0,-999.0,85,-99.99,,,0.42,12,weatherlink.com 1.10,2013-01-11 22:20:00,
2013-01-11 17:35:00,52.1,48.0,29.83,SSE,160,4.0,-999.0,85,-99.99,,,0.42,0,weatherlink.com 1.10,2013-01-11 22:35:00,
2013-01-11 17:50:00,51.3,47.0,29.85,South,180,5.0,-999.0,86,-99.99,,,0.42,0,weatherlink.com 1.10,2013-01-11 22:50:00,
2013-01-11 18:05:00,50.7,47.0,29.84,SSE,156,4.0,-999.0,87,-99.99,,,0.42,0,weatherlink.com 1.10,2013-01-11 23:05:00,
2013-01-11 18:20:00,51.3,48.0,29.84,South,170,7.0,-999.0,87,-99.99,,,0.42,0,weatherlink.com 1.10,2013-01-11 23:20:00,
2013-01-11 18:35:00,51.5,48.0,29.84,SSE,164,8.0,-999.0,87,-99.99,,,0.42,0,weatherlink.com 1.10,2013-01-11 23:35:00,
2013-01-11 18:50:00,51.5,48.0,29.84,South,183,8.0,-999.0,87,-99.99,,,0.42,0,weatherlink.com 1.10,2013-01-11 23:50:00,
2013-01-11 19:05:00,51.7,48.0,29.84,South,169,8.0,-999.0,87,-99.99,,,0.42,0,weatherlink.com 1.10,2013-01-12 00:05:00,
2013-01-11 19:20:00,51.4,48.0,29.85,South,174,12.0,-999.0,87,-99.99,,,0.42,0,weatherlink.com 1.10,2013-01-12 00:20:00,
2013-01-11 19:35:00,50.7,47.0,29.84,South,172,9.0,-999.0,88,-99.99,,,0.42,0,weatherlink.com 1.10,2013-01-12 00:35:00,
2013-01-11 19:50:00,50.9,48.0,29.83,South,180,11.0,-999.0,89,-99.99,,,0.42,0,weatherlink.com 1.10,2013-01-12 00:50:00,
2013-01-11 20:05:00,51.0,48.0,29.84,South,183,7.0,-999.0,89,-99.99,,,0.42,0,weatherlink.com 1.10,2013-01-12 01:05:00,
2013-01-11 20:20:00,51.2,48.0,29.83,South,171,11.0,-999.0,88,-99.99,,,0.42,0,weatherlink.com 1.10,2013-01-12 01:20:00,
2013-01-11 20:35:00,51.3,48.0,29.82,South,179,12.0,-999.0,88,-99.99,,,0.42,0,weatherlink.com 1.10,2013-01-12 01:35:00,
2013-01-11 20:50:00,51.0,48.0,29.83,South,172,9.0,-999.0,88,-99.99,,,0.42,0,weatherlink.com 1.10,2013-01-12 01:50:00,
2013-01-11 21:05:00,51.5,48.0,29.83,South,183,10.0,-999.0,87,-99.99,,,0.42,0,weatherlink.com 1.10,2013-01-12 02:05:00,
2013-01-11 21:20:00,51.1,48.0,29.83,South,179,10.0,-999.0,88,-99.99,,,0.42,0,weatherlink.com 1.10,2013-01-12 02:20:00,
2013-01-11 21:35:00,50.9,48.0,29.82,South,181,12.0,-999.0,88,-99.99,,,0.42,0,weatherlink.com 1.10,2013-01-12 02:35:00,
2013-01-11 21:50:00,51.0,48.0,29.82,SSW,197,11.0,-999.0,88,-99.99,,,0.42,0,weatherlink.com 1.10,2013-01-12 02:50:00,
2013-01-11 22:05:00,50.6,48.0,29.83,SSW,199,8.0,-999.0,89,-99.99,,,0.42,0,weatherlink.com 1.10,2013-01-12 03:05:00,
2013-01-11 22:20:00,50.3,48.0,29.83,South,187,9.0,-999.0,90,-99.99,,,0.42,0,weatherlink.com 1.10,2013-01-12 03:20:00,
2013-01-11 22:35:00,49.7,47.0,29.83,South,183,10.0,-999.0,91,-99.99,,,0.42,0,weatherlink.com 1.10,2013-01-12 03:35:00,
2013-01-11 22:50:00,49.6,47.0,29.83,South,180,10.0,-999.0,91,-99.99,,,0.42,0,weatherlink.com 1.10,2013-01-12 03:50:00,
2013-01-11 23:05:00,49.7,47.0,29.82,South,185,12.0,-999.0,91,-99.99,,,0.42,0,weatherlink.com 1.10,2013-01-12 04:05:00,
2013-01-11 23:20:00,49.8,47.0,29.83,SSW,195,9.0,-999.0,91,-99.99,,,0.42,0,weatherlink.com 1.10,2013-01-12 04:20:00,
2013-01-11 23:35:00,49.9,47.0,29.82,South,178,11.0,-999.0,91,-99.99,,,0.42,0,weatherlink.com 1.10,2013-01-12 04:35:00,
2013-01-11 23:50:00,50.0,47.0,29.82,South,191,12.0,-999.0,90,-99.99,,,0.42,0,weatherlink.com 1.10,2013-01-12 04:50:00,